Del Rio Laughlin AFB, TX

7:22 PM CST on November 23, 2017 (GMT -0600)
Laughlin Air Force Base

Weather History for KDLF - February, 2014

Change the Weather History Date:

Wednesday, February 12, 2014

  Actual Average Record
Temperature  
Mean Temperature 44 °F -  
Max Temperature 65 °F 69 °F 83 °F (2016)
Min Temperature 24 °F 47 °F 24 °F (2014)
Degree Days  
Heating Degree Days 20    
Moisture  
Dew Point 26 °F    
Average Humidity 62    
Maximum Humidity 93    
Minimum Humidity 25    
Precipitation  
Precipitation 0.00 in - - ()
Sea Level Pressure  
Sea Level Pressure 30.17 in    
Wind  
Wind Speed 6 mph (NW)    
Max Wind Speed 9 mph    
Max Gust Speed -    
Visibility 10 miles    
Events      
Averages and records for this station are not official NWS values.
T = Trace of Precipitation, MM = Missing Value Source: NWS Daily Summary

Daily Weather History Graph

Daily Weather History Graph

Search for Another Location

Airport or City:

Trip Planner

Search our weather history database for the weather conditions in past years. The results will help you decide how hot, cold, wet, or windy it might be!

Date:

Astronomy

Feb. 12, 2014 Rise Set
Actual Time 7:24 AM CST 6:30 PM CST
Civil Twilight 7:00 AM CST 6:54 PM CST
Nautical Twilight 6:32 AM CST 7:22 PM CST
Astronomical Twilight 6:04 AM CST 7:50 PM CST
Moon 4:48 PM CST (2/12) 5:38 AM CST (2/12)
Length of Visible Light 11h 54m
Length of Day
11h 05m
Waxing Gibbous, 95% of the Moon is Illuminated
Feb 12
Waxing Gibbous
Feb 14
Full
Feb 22
Last Quarter
Mar 1
New
Mar 8
First Quarter

Hourly Weather History & Observations

Time (CST) Temp. Windchill Dew Point Humidity Pressure Visibility Wind Dir Wind Speed Gust Speed Precip Events Conditions
12:58 AM 27.7 °F 22.4 °F 23.9 °F 86% 30.26 in 10.0 mi West 4.6 mph - N/A   Clear
1:58 AM 26.1 °F 18.4 °F 23.2 °F 89% 30.26 in 10.0 mi West 6.9 mph - N/A   Clear
2:58 AM 25.3 °F 16.0 °F 22.8 °F 90% 30.25 in 10.0 mi WNW 9.2 mph - N/A   Clear
3:58 AM 24.6 °F 15.8 °F 22.1 °F 90% 30.24 in 10.0 mi WNW 8.1 mph - N/A   Clear
4:58 AM 24.4 °F 17.5 °F 22.5 °F 92% 30.22 in 10.0 mi NW 5.8 mph - N/A   Clear
5:58 AM 24.6 °F 18.8 °F 22.6 °F 92% 30.22 in 10.0 mi WNW 4.6 mph - N/A   Clear
6:15 AM 24.8 °F 17.9 °F 23.0 °F 93% 30.20 in 10.0 mi NW 5.8 mph - N/A   Light Freezing Rain
6:24 AM 24.8 °F 17.9 °F 21.2 °F 86% 30.20 in 10.0 mi NW 5.8 mph - N/A   Partly Cloudy
6:58 AM 24.3 °F 17.3 °F 22.1 °F 91% 30.23 in 10.0 mi North 5.8 mph - 0.00 in   Clear
7:58 AM 26.8 °F 22.8 °F 24.3 °F 90% 30.24 in 10.0 mi NNW 3.5 mph - N/A   Clear
8:58 AM 31.5 °F 24.2 °F 27.5 °F 85% 30.24 in 10.0 mi North 8.1 mph - N/A   Clear
9:58 AM 37.9 °F 31.5 °F 28.4 °F 69% 30.26 in 10.0 mi NW 9.2 mph - N/A   Clear
10:58 AM 42.1 °F 37.7 °F 26.4 °F 54% 30.25 in 10.0 mi NNW 6.9 mph - N/A   Clear
11:58 AM 46.4 °F 44.3 °F 27.5 °F 48% 30.24 in 10.0 mi WNW 4.6 mph - N/A   Clear
12:58 PM 51.6 °F - 28.6 °F 41% 30.17 in 10.0 mi WNW 8.1 mph - N/A   Clear
1:58 PM 55.9 °F - 28.2 °F 35% 30.13 in 10.0 mi West 6.9 mph - N/A   Clear
2:58 PM 59.4 °F - 28.2 °F 31% 30.10 in 10.0 mi NW 8.1 mph - N/A   Clear
3:58 PM 62.4 °F - 28.2 °F 27% 30.07 in 10.0 mi NW 8.1 mph - N/A   Clear
4:58 PM 65.5 °F - 28.2 °F 25% 30.04 in 10.0 mi NW 5.8 mph - N/A   Clear
5:58 PM 64.8 °F - 28.4 °F 25% 30.05 in 10.0 mi North 6.9 mph - N/A   Clear
6:58 PM 57.4 °F - 27.9 °F 32% 30.05 in 10.0 mi NNE 5.8 mph - N/A   Clear
7:58 PM 54.7 °F - 28.0 °F 36% 30.08 in 10.0 mi South 4.6 mph - N/A   Clear
8:58 PM 51.4 °F - 27.5 °F 40% 30.09 in 10.0 mi SSW 3.5 mph - N/A   Clear
9:58 PM 46.8 °F - 27.3 °F 47% 30.07 in 10.0 mi South 2.3 mph - N/A   Clear
10:58 PM 42.1 °F 38.4 °F 26.2 °F 53% 30.07 in 10.0 mi NE 5.8 mph - N/A   Clear
11:58 PM 42.8 °F 39.3 °F 26.4 °F 52% 30.08 in 10.0 mi NNE 5.8 mph - N/A   Clear